MST,Max TemperatureF,Mean TemperatureF,Min TemperatureF,Max Dew PointF,MeanDew PointF,Min DewpointF,Max Humidity, Mean Humidity, Min Humidity, Max Sea Level PressureIn, Mean Sea Level PressureIn, Min Sea Level PressureIn, Max VisibilityMiles, Mean VisibilityMiles, Min VisibilityMiles, Max Wind SpeedMPH, Mean Wind SpeedMPH, Max Gust SpeedMPH,PrecipitationIn, CloudCover, Events, WindDirDegrees
2012-10-1,109,93,76,45,34,25,31,18,5,29.86,29.80,29.73,10,10,10,15,6,20,0.00,0,,15
2012-10-2,108,92,75,52,38,26,34,20,6,29.81,29.76,29.70,10,10,10,13,3,15,0.00,0,,148
2012-10-3,106,92,77,65,44,29,45,26,7,29.90,29.82,29.76,10,10,10,15,8,17,0.00,2,,234
2012-10-4,100,87,74,50,39,30,38,24,9,29.98,29.91,29.86,10,10,10,10,3,14,0.00,5,,249
2012-10-5,97,83,68,56,43,27,59,34,9,29.94,29.87,29.81,10,10,10,12,2,18,0.00,4,,201
2012-10-6,97,84,70,63,50,41,61,39,16,29.86,29.80,29.74,10,10,9,12,5,14,0.00,5,,201
2012-10-7,95,83,70,60,48,43,54,36,17,29.85,29.79,29.75,10,10,10,14,4,17,0.00,4,,204
2012-10-8,95,84,72,69,60,51,68,49,30,29.88,29.82,29.76,10,10,10,13,6,16,0.00,2,,177
2012-10-9,94,84,73,67,62,58,69,50,30,29.88,29.82,29.76,10,10,10,16,7,23,0.00,2,,166
2012-10-10,92,82,72,67,59,47,79,54,28,29.87,29.81,29.74,10,10,10,17,8,31,0.00,4,,178
2012-10-11,82,72,61,51,41,35,38,29,20,29.89,29.81,29.76,10,10,6,20,12,25,0.03,5,Rain,310
2012-10-12,79,69,58,54,45,39,72,49,25,30.07,30.01,29.91,10,10,10,15,5,20,T,2,,297
2012-10-13,86,72,57,48,44,37,67,43,19,30.14,30.06,29.98,10,10,10,13,5,17,0.00,0,,343
2012-10-14,94,80,65,48,44,38,52,35,17,30.04,29.96,29.88,10,10,10,17,5,21,0.00,0,,357
2012-10-15,98,83,68,48,42,35,40,26,12,29.90,29.84,29.78,10,10,10,12,3,15,0.00,0,,359
2012-10-16,96,81,66,52,45,35,56,34,12,29.83,29.77,29.69,10,10,10,8,2,10,0.00,1,,183
2012-10-17,94,81,68,70,59,48,93,58,23,29.88,29.79,29.73,10,9,1,14,5,16,0.00,3,,170
2012-10-18,91,83,75,70,63,57,82,58,34,29.99,29.92,29.87,10,10,10,13,5,17,0.00,2,,186
2012-10-19,95,82,69,64,54,25,73,41,9,29.91,29.83,29.75,10,10,10,8,1,13,0.00,0,,35
2012-10-20,94,81,67,65,56,48,68,46,24,29.79,29.72,29.65,10,10,10,21,7,24,0.00,2,,170
2012-10-21,87,79,71,62,52,47,56,41,25,29.80,29.75,29.71,10,10,10,14,5,21,0.00,1,,301
2012-10-22,88,76,64,61,53,40,61,46,31,29.89,29.82,29.78,10,10,10,13,5,16,0.00,3,,249
2012-10-23,84,75,65,46,43,39,50,37,23,29.89,29.83,29.77,10,10,10,15,6,18,0.00,5,,315
2012-10-24,83,72,61,41,37,28,40,27,14,29.94,29.89,29.83,10,10,10,17,8,23,0.00,1,,331
2012-10-25,85,73,61,35,24,19,37,23,9,30.03,29.96,29.90,10,10,10,16,8,21,0.00,0,,3
2012-10-26,81,74,66,23,18,12,18,13,8,30.07,29.99,29.93,10,10,6,24,13,32,0.00,0,,358
2012-10-27,87,75,63,24,12,7,15,11,6,29.95,29.89,29.84,10,10,10,17,8,22,0.00,0,,347
2012-10-28,91,74,57,36,25,19,33,21,8,29.96,29.92,29.88,10,10,10,15,4,17,0.00,0,,23
2012-10-29,91,75,58,38,30,18,36,22,7,30.06,29.99,29.95,10,10,10,8,2,10,0.00,0,,330
2012-10-30,93,76,59,36,30,19,39,23,7,30.01,29.95,29.89,10,10,10,12,3,14,0.00,0,,24
2012-10-31,90,73,56,39,31,22,51,30,8,29.98,29.91,29.86,10,10,9,9,3,10,0.00,2,,58